H1 CPF 2 NER 2024 11 3 9 308 01 glonass129 H2 1106402 9129 37868 2024 11 3 0 0 0 2024 11 6 23 45 0 900 1 1 0 0 0 1 H9 10 0 60617 0.00000 0 5558576.318 18710959.539 16491410.343 10 0 60617 900.00000 0 4207985.630 17026968.292 18582563.845 10 0 60617 1800.00000 0 2568816.645 15283318.035 20314679.148 10 0 60617 2700.00000 0 662006.694 13542764.297 21654244.769 10 0 60617 3600.00000 0 -1479461.740 11864452.372 22575284.263 10 0 60617 4500.00000 0 -3811674.331 10301527.643 23059856.152 10 0 60617 5400.00000 0 -6281357.969 8899011.130 23098405.217 10 0 60617 6300.00000 0 -8827851.167 7692027.417 22689958.387 10 0 60617 7200.00000 0 -11385393.065 6704458.110 21842160.692 10 0 60617 8100.00000 0 -13885638.955 5948076.814 20571149.383 10 0 60617 9000.00000 0 -16260300.500 5422202.263 18901266.805 10 0 60617 9900.00000 0 -18443802.848 5113885.144 16864615.464 10 0 60617 10800.00000 0 -20375849.313 4998622.196 14500461.527 10 0 60617 11700.00000 0 -22003787.095 5041569.188 11854495.984 10 0 60617 12600.00000 0 -23284674.755 5199203.249 8977965.776 10 0 60617 13500.00000 0 -24186963.757 5421365.620 5926690.096 10 0 60617 14400.00000 0 -24691721.802 5653599.182 2759979.958 10 0 60617 15300.00000 0 -24793344.550 5839681.757 -460518.229 10 0 60617 16200.00000 0 -24499723.701 5924247.016 -3672032.203 10 0 60617 17100.00000 0 -23831862.605 5855380.256 -6811901.845 10 0 60617 18000.00000 0 -22822954.279 5587076.686 -9818819.870 10 0 60617 18900.00000 0 -21516960.150 5081455.294 -12634048.989 10 0 60617 19800.00000 0 -19966749.571 4310631.552 -15202589.655 10 0 60617 20700.00000 0 -18231879.429 3258166.843 -17474273.430 10 0 60617 21600.00000 0 -16376108.803 1920030.827 -19404758.775 10 0 60617 22500.00000 0 -14464755.070 305034.096 -20956408.341 10 0 60617 23400.00000 0 -12562004.570 -1565288.450 -22099029.649 10 0 60617 24300.00000 0 -10728292.451 -3657339.284 -22810464.266 10 0 60617 25200.00000 0 -9017862.953 -5926637.241 -23077014.130 10 0 60617 26100.00000 0 -7476613.055 -8319463.863 -22893697.273 10 0 60617 27000.00000 0 -6140309.662 -10774907.323 -22264328.979 10 0 60617 27900.00000 0 -5033254.081 -13227217.468 -21201428.088 10 0 60617 28800.00000 0 -4167447.943 -15608372.563 -19725951.757 10 0 60617 29700.00000 0 -3542293.138 -17850749.873 -17866865.403 10 0 60617 30600.00000 0 -3144835.449 -19889788.268 -15660557.735 10 0 60617 31500.00000 0 -2950538.559 -21666531.881 -13150113.725 10 0 60617 32400.00000 0 -2924552.849 -23129949.359 -10384460.949 10 0 60617 33300.00000 0 -3023422.781 -24238933.168 -7417406.931 10 0 60617 34200.00000 0 -3197158.681 -24963897.131 -4306587.073 10 0 60617 35100.00000 0 -3391583.867 -25287907.567 -1112344.081 10 0 60617 36000.00000 0 -3550857.186 -25207302.999 2103439.191 10 0 60617 36900.00000 0 -3620064.211 -24731778.754 5278530.971 10 0 60617 37800.00000 0 -3547768.133 -23883934.968 8351543.350 10 0 60617 38700.00000 0 -3288413.594 -22698308.475 11263104.457 10 0 60617 39600.00000 0 -2804483.207 -21219930.096 13956988.503 10 0 60617 40500.00000 0 -2068317.143 -19502467.969 16381183.430 10 0 60617 41400.00000 0 -1063520.164 -17606034.070 18488877.194 10 0 60617 42300.00000 0 214102.451 -15594744.431 20239345.376 10 0 60617 43200.00000 0 1756119.447 -13534133.196 21598724.683 10 0 60617 44100.00000 0 3541577.248 -11488526.251 22540658.850 10 0 60617 45000.00000 0 5537629.976 -9518481.673 23046805.542 10 0 60617 45900.00000 0 7700671.825 -7678401.437 23107195.041 10 0 60617 46800.00000 0 9977927.426 -6014412.009 22720433.792 10 0 60617 47700.00000 0 12309437.089 -4562600.746 21893748.230 10 0 60617 48600.00000 0 14630357.442 -3347680.878 20642866.789 10 0 60617 49500.00000 0 16873484.671 -2382140.657 18991740.607 10 0 60617 50400.00000 0 18971897.628 -1665912.784 16972106.194 10 0 60617 51300.00000 0 20861612.353 -1186578.959 14622896.168 10 0 60617 52200.00000 0 22484138.033 -920102.286 11989507.151 10 0 60617 53100.00000 0 23788827.441 -832058.186 9122936.945 10 0 60617 54000.00000 0 24734922.490 -879313.169 6078806.081 10 0 60617 54900.00000 0 25293207.475 -1012081.423 2916281.689 10 0 60617 55800.00000 0 25447198.393 -1176272.503 -303075.712 10 0 60617 56700.00000 0 25193816.019 -1316030.156 -3516519.689 10 0 60617 57600.00000 0 24543512.177 -1376353.472 -6661355.100 10 0 60617 58500.00000 0 23519842.062 -1305687.212 -9676179.260 10 0 60617 59400.00000 0 22158499.412 -1058369.020 -12502100.887 10 0 60617 60300.00000 0 20505854.696 -596826.962 -15083910.912 10 0 60617 61200.00000 0 18617058.164 106568.527 -17371180.102 10 0 60617 62100.00000 0 16553788.554 1068079.294 -19319260.203 10 0 60617 63000.00000 0 14381743.565 2291663.173 -20890167.554 10 0 60617 63900.00000 0 12167979.234 3768567.871 -22053330.862 10 0 60617 64800.00000 0 9978211.579 5477473.095 -22786188.124 10 0 60617 65700.00000 0 7874194.984 7385175.260 -23074621.126 10 0 60617 66600.00000 0 5911288.035 9447785.684 -22913219.592 10 0 60617 67500.00000 0 4136308.847 11612391.279 -22305370.884 10 0 60617 68400.00000 0 2585768.941 13819107.149 -21263174.733 10 0 60617 69300.00000 0 1284558.139 16003434.053 -19807186.191 10 0 60617 70200.00000 0 245133.265 18098821.171 -17965993.362 10 0 60617 71100.00000 0 -532758.150 20039326.332 -15775639.654 10 0 60617 72000.00000 0 -1061810.746 21762262.221 -13278903.302 10 0 60617 72900.00000 0 -1366365.337 23210718.194 -10524449.443 10 0 60617 73800.00000 0 -1481120.617 24335853.046 -7565872.293 10 0 60617 74700.00000 0 -1449409.614 25098864.093 -4460646.933 10 0 60617 75600.00000 0 -1321115.679 25472551.896 -1269011.534 10 0 60617 76500.00000 0 -1150317.432 25442417.082 1947198.060 10 0 60617 77400.00000 0 -992762.787 25007245.379 5125738.935 10 0 60617 78300.00000 0 -903278.704 24179158.299 8205154.341 10 0 60617 79200.00000 0 -933225.390 22983128.919 11125947.363 10 0 60617 80100.00000 0 -1128101.345 21455984.107 13831713.514 10 0 60617 81000.00000 0 -1525398.927 19644935.340 16270211.848 10 0 60617 81900.00000 0 -2152799.563 17605699.215 18394355.606 10 0 60617 82800.00000 0 -3026783.551 15400285.133 20163104.990 10 0 60617 83700.00000 0 -4151712.442 13094540.812 21542246.501 10 0 60617 84600.00000 0 -5519422.742 10755555.776 22505045.306 10 0 60617 85500.00000 0 -7109348.959 8449028.580 23032759.085 10 0 60618 0.00000 0 -8889172.475 6236705.094 23115004.081 10 0 60618 900.00000 0 -10815972.569 4173991.013 22749966.275 10 0 60618 1800.00000 0 -12837832.047 2307839.043 21944452.968 10 0 60618 2700.00000 0 -14895836.793 674993.521 20713782.742 10 0 60618 3600.00000 0 -16926386.597 -699332.044 19081513.953 10 0 60618 4500.00000 0 -18863724.425 -1802290.460 17079015.003 10 0 60618 5400.00000 0 -20642580.479 -2633713.637 14744882.370 10 0 60618 6300.00000 0 -22200821.789 -3205888.513 12124215.285 10 0 60618 7200.00000 0 -23481996.759 -3542804.251 9267759.068 10 0 60618 8100.00000 0 -24437667.424 -3678901.130 6230932.025 10 0 60618 9000.00000 0 -25029430.099 -3657372.904 3072753.730 10 0 60618 9900.00000 0 -25230537.387 -3528093.852 -145304.865 10 0 60618 10800.00000 0 -25027050.842 -3345258.375 -3360526.762 10 0 60618 11700.00000 0 -24418473.203 -3164834.006 -6510185.246 10 0 60618 12600.00000 0 -23417831.260 -3041937.386 -9532785.481 10 0 60618 13500.00000 0 -22051204.009 -3028246.671 -12369285.188 10 0 60618 14400.00000 0 -20356714.865 -3169562.621 -14964268.449 10 0 60618 15300.00000 0 -18383029.965 -3503624.529 -17267047.519 10 0 60618 16200.00000 0 -16187426.132 -4058276.067 -19232669.241 10 0 60618 17100.00000 0 -13833510.687 -4850060.977 -20822804.887 10 0 60618 18000.00000 0 -11388690.246 -5883309.715 -22006504.990 10 0 60618 18900.00000 0 -8921496.215 -7149756.734 -22760803.970 10 0 60618 19800.00000 0 -6498880.409 -8628705.017 -23071162.804 10 0 60618 20700.00000 0 -4183595.075 -10287730.791 -22931741.677 10 0 60618 21600.00000 0 -2031767.282 -12083898.113 -22345498.266 10 0 60618 22500.00000 0 -90768.793 -13965431.360 -21324111.008 10 0 60618 23400.00000 0 1602530.655 -15873774.203 -19887730.335 10 0 60618 24300.00000 0 3023055.517 -17745947.619 -18064564.273 10 0 60618 25200.00000 0 4158310.595 -19517107.131 -15890308.026 10 0 60618 26100.00000 0 5008631.300 -21123191.531 -13407430.109 10 0 60618 27000.00000 0 5586890.917 -22503551.941 -10664330.231 10 0 60618 27900.00000 0 5917680.516 -23603451.431 -7714386.385 10 0 60618 28800.00000 0 6035999.134 -24376331.290 -4614910.515 10 0 60618 29700.00000 0 5985512.015 -24785750.280 -1426033.616 10 0 60618 30600.00000 0 5816452.344 -24806917.223 1790457.944 10 0 60618 31500.00000 0 5583256.215 -24427754.453 4972312.354 10 0 60618 32400.00000 0 5342031.142 -23649449.357 8058006.043 10 0 60618 33300.00000 0 5147964.680 -22486472.421 10987918.859 10 0 60618 34200.00000 0 5052781.675 -20966062.128 13705469.172 10 0 60618 35100.00000 0 5102356.136 -19127198.815 16158188.465 10 0 60618 36000.00000 0 5334576.971 -17019110.190 18298716.332 10 0 60618 36900.00000 0 5777556.139 -14699370.055 20085698.384 10 0 60618 37800.00000 0 6448253.626 -12231667.990 21484571.441 10 0 60618 38700.00000 0 7351576.630 -9683340.766 22468222.347 10 0 60618 39600.00000 0 8479991.080 -7122765.792 23017508.781 10 0 60618 40500.00000 0 9813662.924 -4616722.337 23121632.657 10 0 60618 41400.00000 0 11321125.154 -2227827.664 22778358.974 10 0 60618 42300.00000 0 12960445.169 -12152.446 21994075.283 10 0 60618 43200.00000 0 14680846.592 1982887.112 20783689.479 10 0 60618 44100.00000 0 16424720.795 3720273.811 19170366.137 10 0 60618 45000.00000 0 18129946.857 5174698.346 17185104.411 10 0 60618 45900.00000 0 19732425.320 6333377.665 14866163.332 10 0 60618 46800.00000 0 21168721.315 7196347.802 12258343.256 10 0 60618 47700.00000 0 22378707.035 7776217.749 9412135.316 10 0 60618 48600.00000 0 23308092.470 8097393.484 6382753.669 10 0 60618 49500.00000 0 23910736.995 8194803.706 3229068.159 10 0 60618 50400.00000 0 24150642.608 8112180.267 12457.789 10 0 60618 51300.00000 0 24003542.490 7899965.824 -3204392.430 10 0 60618 52200.00000 0 23458015.199 7612937.702 -6358726.856 10 0 60618 53100.00000 0 22516074.867 7307649.862 -9388961.151 10 0 60618 54000.00000 0 21193210.195 7039803.194 -12235904.605 10 0 60618 54900.00000 0 19517868.800 6861657.923 -14843936.855 10 0 60618 55800.00000 0 17530407.632 6819600.365 -17162113.836 10 0 60618 56700.00000 0 15281553.316 6951969.664 -19145179.443 10 0 60618 57600.00000 0 12830437.557 7287238.834 -20754461.608 10 0 60618 58500.00000 0 10242291.080 7842628.893 -21958634.184 10 0 60618 59400.00000 0 7585894.059 8623215.888 -22734329.265 10 0 60618 60300.00000 0 4930891.162 9621569.119 -23066588.025 10 0 60618 61200.00000 0 2345084.681 10817935.716 -22949141.808 10 0 60618 62100.00000 0 -108180.436 12180963.188 -22384518.956 10 0 60618 63000.00000 0 -2372430.368 13668928.468 -21383976.555 10 0 60618 63900.00000 0 -4400174.902 15231420.460 -19967259.921 10 0 60618 64800.00000 0 -6154631.860 16811404.009 -18162196.058 10 0 60618 65700.00000 0 -7610993.646 18347577.366 -16004130.563 10 0 60618 66600.00000 0 -8757185.724 19776923.150 -13535220.418 10 0 60618 67500.00000 0 -9594088.542 21037345.175 -10803597.733 10 0 60618 68400.00000 0 -10135216.980 22070280.344 -7862421.786 10 0 60618 69300.00000 0 -10405874.107 22823176.385 -4768838.673 10 0 60618 70200.00000 0 -10441817.852 23251732.306 -1582869.311 10 0 60618 71100.00000 0 -10287499.129 23321808.800 1633752.405 10 0 60618 72000.00000 0 -9993947.445 23010929.934 4818768.822 10 0 60618 72900.00000 0 -9616394.084 22309314.715 7910592.581 10 0 60618 73800.00000 0 -9211733.283 21220396.721 10849483.253 10 0 60618 74700.00000 0 -8835927.970 19760811.172 13578684.913 10 0 60618 75600.00000 0 -8541468.329 17959850.584 16045504.150 10 0 60618 76500.00000 0 -8374988.827 15858411.750 18202309.385 10 0 60618 77400.00000 0 -8375142.536 13507477.323 20007433.872 10 0 60618 78300.00000 0 -8570820.749 10966193.881 21425966.712 10 0 60618 79200.00000 0 -8979791.791 8299624.481 22430418.076 10 0 60618 80100.00000 0 -9607815.800 5576266.745 23001246.938 10 0 60618 81000.00000 0 -10448273.036 2865436.844 23127241.803 10 0 60618 81900.00000 0 -11482322.477 234625.298 22805747.166 10 0 60618 82800.00000 0 -12679585.965 -2253068.120 22042730.780 10 0 60618 83700.00000 0 -13999331.723 -4541315.942 20852689.302 10 0 60618 84600.00000 0 -15392110.489 -6582663.506 19258392.448 10 0 60618 85500.00000 0 -16801778.549 -8340261.803 17290468.505 10 0 60619 0.00000 0 -18167825.305 -9789160.397 14986837.136 10 0 60619 900.00000 0 -19427910.506 -10917106.648 12391996.805 10 0 60619 1800.00000 0 -20520503.950 -11724814.914 9556181.659 10 0 60619 2700.00000 0 -21387519.468 -12225695.772 6534398.389 10 0 60619 3600.00000 0 -21976829.807 -12445053.376 3385363.590 10 0 60619 4500.00000 0 -22244555.642 -12418784.612 170360.660 10 0 60619 5400.00000 0 -22157029.843 -12191634.240 -3047961.076 10 0 60619 6300.00000 0 -21692351.376 -11815079.867 -6206820.726 10 0 60619 7200.00000 0 -20841460.406 -11344937.034 -9244548.034 10 0 60619 8100.00000 0 -19608686.512 -10838787.270 -12101807.281 10 0 60619 9000.00000 0 -18011744.599 -10353340.058 -14722776.836 10 0 60619 9900.00000 0 -16081177.028 -9941842.830 -17056259.156 10 0 60619 10800.00000 0 -13859264.506 -9651651.109 -19056697.593 10 0 60619 11700.00000 0 -11398451.387 -9522063.958 -20685078.602 10 0 60619 12600.00000 0 -8759351.956 -9582518.207 -21909700.584 10 0 60619 13500.00000 0 -6008422.263 -9851219.115 -22706793.855 10 0 60619 14400.00000 0 -3215396.117 -10334265.988 -23060979.632 10 0 60619 15300.00000 0 -450593.688 -11025309.628 -22965559.599 10 0 60619 16200.00000 0 2217784.015 -11905755.409 -22422631.347 10 0 60619 17100.00000 0 4726261.449 -12945502.296 -21443028.694 10 0 60619 18000.00000 0 7018487.116 -14104185.194 -20046089.502 10 0 60619 18900.00000 0 9047325.302 -15332866.675 -18259257.094 10 0 60619 19800.00000 0 10776555.440 -16576105.364 -16117524.556 10 0 60619 20700.00000 0 12182110.471 -17774312.553 -13662734.243 10 0 60619 21600.00000 0 13252805.370 -18866296.943 -10942747.434 10 0 60619 22500.00000 0 13990528.600 -19791889.934 -8010501.394 10 0 60619 23400.00000 0 14409891.810 -20494541.041 -4922973.039 10 0 60619 24300.00000 0 14537355.652 -20923774.754 -1740069.934 10 0 60619 25200.00000 0 14409871.255 -21037406.484 1476529.647 10 0 60619 26100.00000 0 14073096.675 -20803425.680 4664565.153 10 0 60619 27000.00000 0 13579264.875 -20201468.425 7762388.111 10 0 60619 27900.00000 0 12984793.657 -19223819.032 10710140.151 10 0 60619 28800.00000 0 12347738.124 -17875899.787 13450893.005 10 0 60619 29700.00000 0 11725192.122 -16176229.017 15931729.923 10 0 60619 30600.00000 0 11170746.754 -14155849.341 18104749.281 10 0 60619 31500.00000 0 10732111.248 -11857249.489 19927972.706 10 0 60619 32400.00000 0 10448994.577 -9332823.358 21366141.904 10 0 60619 33300.00000 0 10351335.363 -6642928.602 22391390.333 10 0 60619 34200.00000 0 10457953.428 -3853623.062 22983777.892 10 0 60619 35100.00000 0 10775679.221 -1034170.309 23131679.004 10 0 60619 36000.00000 0 11298998.069 1745585.070 22832016.739 10 0 60619 36900.00000 0 12010225.325 4417866.246 22090337.921 10 0 60619 37800.00000 0 12880206.957 6919529.480 20920726.678 10 0 60619 38700.00000 0 13869518.550 9194441.322 19345556.437 10 0 60619 39600.00000 0 14930115.023 11195570.023 17395083.068 10 0 60619 40500.00000 0 16007364.347 12886704.487 15106884.782 10 0 60619 41400.00000 0 17042382.015 14243728.835 12525157.204 10 0 60619 42300.00000 0 17974569.632 15255398.413 9699875.217 10 0 60619 43200.00000 0 18744251.484 15923583.513 6685836.011 10 0 60619 44100.00000 0 19295297.739 16262969.197 3541600.750 10 0 60619 45000.00000 0 19577622.512 16300222.564 328354.927 10 0 60619 45900.00000 0 19549449.320 16072661.662 -2891290.208 10 0 60619 46800.00000 0 19179245.730 15626481.881 -6054530.924 10 0 60619 47700.00000 0 18447242.492 15014615.095 -9099613.412 10 0 60619 48600.00000 0 17346470.082 14294313.144 -11967059.187 10 0 60619 49500.00000 0 15883266.193 13524559.521 -14600847.436 10 0 60619 50400.00000 0 14077230.552 12763420.930 -16949529.015 10 0 60619 51300.00000 0 11960627.502 12065453.047 -18967248.405 10 0 60619 52200.00000 0 9577260.637 11479272.509 -20614652.047 10 0 60619 53100.00000 0 6980866.766 11045399.709 -21859664.170 10 0 60619 54000.00000 0 4233097.068 10794465.016 -22678114.402 10 0 60619 54900.00000 0 1401170.909 10745854.902 -23054204.888 10 0 60619 55800.00000 0 -1444698.460 10906855.213 -22980808.283 10 0 60619 56700.00000 0 -4233997.784 11272327.029 -22459591.753 10 0 60619 57600.00000 0 -6898614.226 11824927.600 -21500965.797 10 0 60619 58500.00000 0 -9375429.450 12535865.338 -20123860.366 10 0 60619 59400.00000 0 -11608699.763 13366155.162 -18355334.205 10 0 60619 60300.00000 0 -13552124.202 14268319.369 -16230026.571 10 0 60619 61200.00000 0 -15170516.169 15188460.579 -13789463.506 10 0 60619 62100.00000 0 -16441011.282 16068617.964 -11081233.464 10 0 60619 63000.00000 0 -17353763.883 16849306.496 -8158049.454 10 0 60619 63900.00000 0 -17912106.209 17472131.751 -5076716.806 10 0 60619 64800.00000 0 -18132166.732 17882370.162 -1897027.200 10 0 60619 65700.00000 0 -18041966.613 18031406.619 1319399.330 10 0 60619 66600.00000 0 -17680034.693 17878927.739 4510302.005 10 0 60619 67500.00000 0 -17093601.078 17394779.730 7613973.941 10 0 60619 68400.00000 0 -16336446.362 16560414.014 10570441.541 10 0 60619 69300.00000 0 -15466497.255 15369861.047 13322606.880 10 0 60619 70200.00000 0 -14543269.259 13830192.287 15817332.489 10 0 60619 71100.00000 0 -13625262.796 11961451.254 18006449.205 10 0 60619 72000.00000 0 -12767420.653 9796056.225 19847669.356 10 0 60619 72900.00000 0 -12018751.725 7377698.441 21305389.363 10 0 60619 73800.00000 0 -11420219.002 4759779.992 22351367.794 10 0 60619 74700.00000 0 -11002978.911 2003454.053 22965266.969 10 0 60619 75600.00000 0 -10787044.866 -824653.854 23135048.356 10 0 60619 76500.00000 0 -10780430.681 -3654951.985 22857214.319 10 0 60619 77400.00000 0 -10978810.215 -6417514.808 22136891.038 10 0 60619 78300.00000 0 -11365708.633 -9044735.236 20987749.930 10 0 60619 79200.00000 0 -11913219.033 -11473888.744 19431767.468 10 0 60619 80100.00000 0 -12583216.543 -13649504.351 17498825.970 10 0 60619 81000.00000 0 -13329021.207 -15525444.580 15226160.799 10 0 60619 81900.00000 0 -14097441.933 -17066607.735 12657662.293 10 0 60619 82800.00000 0 -14831117.176 -18250180.687 9843043.827 10 0 60619 83700.00000 0 -15471054.799 -19066388.565 6836890.338 10 0 60619 84600.00000 0 -15959264.163 -19518708.395 3697604.539 10 0 60619 85500.00000 0 -16241368.555 -19623536.189 486270.791 10 0 60620 0.00000 0 -16269085.993 -19409320.228 -2734540.818 10 0 60620 900.00000 0 -16002471.155 -18915196.101 -5902007.772 10 0 60620 1800.00000 0 -15411820.815 -18189181.300 -8954295.940 10 0 60620 2700.00000 0 -14479159.261 -17286005.767 -11831787.572 10 0 60620 3600.00000 0 -13199237.866 -16264671.512 -14478266.066 10 0 60620 4500.00000 0 -11580004.082 -15185846.204 -16842033.871 10 0 60620 5400.00000 0 -9642518.062 -14109202.965 -18876939.464 10 0 60620 6300.00000 0 -7420319.067 -13090820.962 -20543291.709 10 0 60620 7200.00000 0 -4958267.740 -12180758.589 -21808642.558 10 0 60620 8100.00000 0 -2310912.887 -11420903.199 -22648422.224 10 0 60620 9000.00000 0 459548.188 -10843189.042 -23046414.406 10 0 60620 9900.00000 0 3285629.549 -10468258.731 -22995062.716 10 0 60620 10800.00000 0 6097137.067 -10304624.109 -22495603.277 10 0 60620 11700.00000 0 8823860.884 -10348360.611 -21558022.124 10 0 60620 12600.00000 0 11398267.091 -10583346.196 -20200839.682 10 0 60620 13500.00000 0 13758076.403 -10982032.640 -18450728.101 10 0 60620 14400.00000 0 15848622.986 -11506714.360 -16341970.426 10 0 60620 15300.00000 0 17624896.366 -12111239.065 -13915773.662 10 0 60620 16200.00000 0 19053183.137 -12743086.140 -11219450.400 10 0 60620 17100.00000 0 20112242.413 -13345723.581 -8305486.083 10 0 60620 18000.00000 0 20793968.658 -13861143.056 -5230510.923 10 0 60620 18900.00000 0 21103517.214 -14232465.754 -2054197.056 10 0 60620 19800.00000 0 21058890.118 -14406509.257 1161897.409 10 0 60620 20700.00000 0 20690002.244 -14336207.845 4355515.045 10 0 60620 21600.00000 0 20037269.035 -13982785.253 7464893.914 10 0 60620 22500.00000 0 19149776.561 -13317589.570 10429948.210 10 0 60620 23400.00000 0 18083111.415 -12323514.253 13193412.951 10 0 60620 24300.00000 0 16896941.472 -10995946.510 15701932.064 10 0 60620 25200.00000 0 15652448.209 -9343203.740 17907070.475 10 0 60620 26100.00000 0 14409716.921 -7386439.668 19766232.342 10 0 60620 27000.00000 0 13225192.475 -5159023.297 21243469.453 10 0 60620 27900.00000 0 12149305.228 -2705415.077 22310165.710 10 0 60620 28800.00000 0 11224364.761 -79584.936 22945585.665 10 0 60620 29700.00000 0 10482808.056 2656964.709 23137277.287 10 0 60620 30600.00000 0 9945874.513 5437491.875 22881321.359 10 0 60620 31500.00000 0 9622762.965 8192531.730 22182422.244 10 0 60620 32400.00000 0 9510306.435 10852535.596 21053837.236 10 0 60620 33300.00000 0 9593179.352 13350525.190 19517144.225 10 0 60620 34200.00000 0 9844630.163 15624653.662 17601850.165 10 0 60620 35100.00000 0 10227710.543 17620568.056 15344845.604 10 0 60620 36000.00000 0 10696951.507 19293475.063 12789713.482 10 0 60620 36900.00000 0 11200417.642 20609823.330 9985903.426 10 0 60620 37800.00000 0 11682054.089 21548530.888 6987785.747 10 0 60620 38700.00000 0 12084227.788 22101704.663 3853602.225 10 0 60620 39600.00000 0 12350355.256 22274820.119 644333.526 10 0 60620 40500.00000 0 12427504.591 22086351.820 -2577494.591 10 0 60620 41400.00000 0 12268859.625 21566869.180 -5749042.217 10 0 60620 42300.00000 0 11835939.307 20757634.820 -8808397.927 10 0 60620 43200.00000 0 11100475.458 19708764.637 -11695806.987 10 0 60620 44100.00000 0 10045866.366 18477027.974 -14354859.062 10 0 60620 45000.00000 0 8668141.994 17123382.112 -16733610.007 10 0 60620 45900.00000 0 6976397.584 15710346.990 -18785613.871 10 0 60620 46800.00000 0 4992675.627 14299332.933 -20470843.276 10 0 60620 47700.00000 0 2751300.062 12948036.150 -21756479.020 10 0 60620 48600.00000 0 297690.312 11708013.406 -22617552.822 10 0 60620 49500.00000 0 -2313294.883 10622539.169 -23037430.625 10 0 60620 50400.00000 0 -5019413.754 9724835.887 -23008127.431 10 0 60620 51300.00000 0 -7753411.006 9036751.480 -22530448.451 10 0 60620 52200.00000 0 -10445600.621 8567938.541 -21613955.015 10 0 60620 53100.00000 0 -13026553.363 8315568.005 -20276757.384 10 0 60620 54000.00000 0 -15429776.567 8264586.975 -18545140.068 10 0 60620 54900.00000 0 -17594274.590 8388507.272 -16453028.472 10 0 60620 55800.00000 0 -19466883.891 8650688.834 -14041308.810 10 0 60620 56700.00000 0 -21004286.698 9006061.379 -11357015.805 10 0 60620 57600.00000 0 -22174621.148 9403209.640 -8452405.149 10 0 60620 58500.00000 0 -22958622.965 9786732.584 -5383929.631 10 0 60620 59400.00000 0 -23350253.631 10099776.102 -2211139.464 10 0 60620 60300.00000 0 -23356791.490 10286631.892 1004471.604 10 0 60620 61200.00000 0 -22998384.526 10295293.119 4200651.987 10 0 60620 62100.00000 0 -22307085.808 10079859.743 7315587.229 10 0 60620 63000.00000 0 -21325413.689 9602693.153 10289081.874 10 0 60620 63900.00000 0 -20104498.118 8836230.516 13063706.459 10 0 60620 64800.00000 0 -18701890.997 7764383.563 15585888.852 10 0 60620 65700.00000 0 -17179131.822 6383463.773 17806930.499 10 0 60620 66600.00000 0 -15599169.368 4702595.371 19683929.660 10 0 60620 67500.00000 0 -14023745.671 2743598.390 21180595.523 10 0 60620 68400.00000 0 -12510849.673 540345.486 22267939.055 10 0 60620 69300.00000 0 -11112344.986 -1862382.539 22924828.434 10 0 60620 70200.00000 0 -9871868.983 -4410497.362 23138399.145 10 0 60620 71100.00000 0 -8823089.518 -7042596.300 22904311.022 10 0 60620 72000.00000 0 -7988391.240 -9692268.303 22226846.855 10 0 60620 72900.00000 0 -7378046.172 -12290620.094 21118849.651 10 0 60620 73800.00000 0 -6989903.705 -14768920.301 19601498.171 10 0 60620 74700.00000 0 -6809614.057 -17061253.868 17703923.061 10 0 60620 75600.00000 0 -6811377.317 -19107077.783 15462668.737 10 0 60620 76500.00000 0 -6959188.326 -20853572.291 12921009.062 10 0 60620 77400.00000 0 -7208526.690 -22257689.226 10128127.912 10 0 60620 78300.00000 0 -7508422.037 -23287810.845 7138178.684 10 0 60620 79200.00000 0 -7803808.136 -23924948.125 4009239.698 10 0 60620 80100.00000 0 -8038066.443 -24163426.275 802185.194 10 0 60620 81000.00000 0 -8155650.654 -24011026.733 -2420506.015 10 0 60620 81900.00000 0 -8104679.566 -23488577.853 -5595980.264 10 0 60620 82800.00000 0 -7839386.127 -22629010.300 -8662251.710 10 0 60620 83700.00000 0 -7322316.154 -21475916.336 -11559431.871 10 0 60620 84600.00000 0 -6526180.630 -20081673.881 -14230919.920 10 0 60620 85500.00000 0 -5435280.235 -18505215.343 -16624528.271 99